This demonstration page uses our WeatherBlox Daily Observations layout. Learn more.

Left ArrowRight Arrow

36.19886, -115.1175

Hourly Observations for May 17, 2020

Temp ( °F °C ) Dew Point ( °F °C ) Humidity (%) Winds ( mph kmh ) Pressure ( in mb ) Visibility ( mi km ) Precip ( " mm )
12:53 am 00:53 Clear 82 27.8 34 1.1 18 18 SSW 7 11 29.73 1007 10 16 N/A
1:53 am 01:53 Clear 81 27.2 34 1.1 18 18 N N/A 29.72 1007 10 16 N/A
2:53 am 02:53 Clear 78 25.6 35 1.7 21 21 N N/A 29.72 1007 10 16 N/A
3:53 am 03:53 Clear 76 24.4 34 1.1 22 22 ESE 3 6 29.72 1007 10 16 N/A
4:53 am 04:53 Clear 74 23.3 35 1.7 24 24 ENE 7 11 29.74 1007 10 16 N/A
5:53 am 05:53 Sunny 73 22.8 37 2.8 27 27 ENE 7 11 29.75 1008 10 16 N/A
6:53 am 06:53 Sunny 76 24.4 39 3.9 26 26 E 6 9 29.77 1008 10 16 N/A
7:53 am 07:53 Sunny 80 26.7 42 5.6 26 26 ESE 6 9 29.77 1008 10 16 N/A
8:53 am 08:53 Sunny 84 28.9 42 5.6 23 23 SSE 13 20 29.78 1008 10 16 N/A
9:53 am 09:53 Sunny 87 30.6 44 6.7 22 22 SSE 18 30 29.77 1008 10 16 N/A
10:53 am 10:53 Sunny 90 32.2 40 4.4 17 17 S 22 35 29.77 1008 10 16 N/A
11:53 am 11:53 Sunny 93 33.9 40 4.4 16 16 SSW 16 26 29.75 1008 10 16 N/A
12:53 pm 12:53 Sunny 95 35 33 0.6 11 11 SSW 21 33 29.74 1007 10 16 N/A
1:53 pm 13:53 Sunny 93 33.9 33 0.6 12 12 S 14 22 29.73 1007 10 16 N/A
2:53 pm 14:53 Sunny 96 35.6 34 1.1 11 11 SW 18 30 29.71 1006 10 16 N/A
3:53 pm 15:53 Sunny 94 34.4 34 1.1 12 12 SSW 13 20 29.70 1006 10 16 N/A
4:53 pm 16:53 Sunny 93 33.9 35 1.7 13 13 SW 20 31 29.69 1006 10 16 N/A
5:53 pm 17:53 Sunny 93 33.9 35 1.7 13 13 SSW 13 20 29.68 1005 10 16 N/A
6:53 pm 18:53 Sunny 93 33.9 34 1.1 12 12 SW 16 26 29.67 1005 10 16 N/A
7:53 pm 19:53 Clear 91 32.8 32 undefined 12 12 S 17 28 29.67 1005 10 16 N/A
8:53 pm 20:53 Clear 89 31.7 27 -2.8 11 11 SSW 16 26 29.69 1006 10 16 N/A
9:53 pm 21:53 Clear 86 30 27 -2.8 12 12 SW 14 22 29.71 1006 10 16 N/A
10:53 pm 22:53 Clear 83 28.3 29 -1.7 14 14 SW 15 24 29.72 1006 10 16 N/A
11:53 pm 23:53 Clear 81 27.2 30 -1.1 16 16 SW 15 24 29.73 1007 10 16 N/A

Powered by AerisWeather